Showing default

SATELIOT_4, 60537

Orbit data source: Space-Track

SATELIOT_4, 60537 is a payload satellite owned by Sateliot (ES) in SSO that was launched on Fri, 16 Aug 2024 UTC via an FALCON 9 launch vehicle from the Air Force Western Test Range (AFWTR). Payload-class satellites include a variety of spacecraft equipped with specific instruments for various scientific and technological missions. These include communications satellites like Starlink; space stations such as the ISS; scientific satellites like the Hubble; Earth observation satellites from companies like Planet Labs, Umbra, and HawkEye 360; GPS; miniature CubeSats for education and research; and military/defense satellites.

Loading next visibility...
Identifier
60537, 2024-149BX
Orbit
SSO
Country
Flag of ESES / SPN
Related business
Manufacturer
Endurosat
Mission
Operational Commercial Communications
Bus & Motor
CUBESAT 6U, Unknown motor
Mass
7.407 kg wet, 7.407 kg dry
Launch date (UTC)
2024-08-16 (2 years ago)
Launch vehicle
FALCON 9
Launch site
Air Force Western Test Range (AFWTR)
Object type
Payload
Rocket body
Debris
Shape & HBR
Box + 2 Pan, 0.2 m
Radar Cross Section
0.092 m², Medium (>0.1 m² and < 1m²)

Expand to show TLE details & history
Last TLE update: 2 days ago

TLE from 2 days ago
0 SATELIOT_4
1 60537U 24149BX  26173.51938611  .00000736  00000-0  69508-4 0  9992
2 60537  97.6736 247.9023 0002732  45.9413 314.2033 14.96682221100770
Epoch: 2026-06-22T12:27Z
TLE epoch observation values (Epoch: 2026-06-22T12:27:54.959Z)
Latitude
-0.00008°
Longitude
150.21918°
Altitude
578.882 km
Speed
7.572 km/s
True Right ascension
16h 31m 36s
True Declination
0° 00' 00"
Sunlit
Object was in full shadow at epoch
Visualization orbit readout
Latitude
Unknown
Longitude
Unknown
Altitude
Unknown
Speed
Unknown
Apparent Right ascension
Unknown
Apparent Declination
Unknown
Sunlit
N/A
Visualization observer readout
Local Sidereal Time
13:53:00
Azimuth
Unknown
Elevation
Unknown
Doppler factor
Unknown
Orbital elements
Apogee altitude
576.064 km
Perigee altitude
572.265 km
Semi-major axis
6,952.302 km
Eccentricity
0.00027
Inclination
97.6736°
RAAN
247.9023°
Arg. of periapsis
45.9413°
True anomaly
314.18085°
Mean anomaly
314.2033°
Eccentric anomaly
314.19208°
Mean motion
3.74412 °/min
Orbital period
96.15 mins
BSTAR
0.000069508
Loading maneuver chart data...
Computing Atmospheric mass density...
Loading historical data...
Loading historical data...
Loading historical data...
Loading historical data...
Loading historical data...
Loading historical data...
Loading historical data...

Documentation

Showing up to 5 results
|